Torna al catalogo

COSMOS 2611

AttivoMilitareSSO
NORAD 68759·PAYLOAD·🇷🇺 Russia

Lanciato Apr 16, 2026 da Plesetsk Cosmodrome

Loading…

Prossimi Passaggi (prossime 24 ore)

TLE

AggiornatoSource: Space-Track

Epoca: Sep 14, 2026, 22:58 UTC

1 68759U 26083G   26257.95722149  .00001547  00000-0  10897-3 0  9990
2 68759  97.8242  36.6395 0012586 113.7983 246.4565 15.06504092 22700

Traccia COSMOS 2611 in tempo reale con AllMySat

Download on the App Store